THORAD AGENA D DEB

Satellite information

Favourite Embed

Satellite Type and Status

DEBRISIN ORBIT

Key statistics

Satellite THORAD AGENA D DEB at a glance.

Uptime

20180

Days in orbit

Revolutions

≈ 13.6

Per day

Orbit

SSO

Sun Synchronous Orbit

Inclination

100.1

Latest

Satellite identification and parameters

Extended collection of information and parameters for THORAD AGENA D DEB.

Object identification

Identified? True

Debris? True

Object name: THORAD AGENA D DEB

International designator: 1970-025NT

Object number (NORAD): 14467

Object ID (CCSDS): 14467

Country: UNITED STATES OF AMERICA (US)

Current information (Y/N): Y

RCS size: SMALL

Orbital parameters

Period: 105.548 minutes

Inclination: 100.0815 deg

SMA: 7398.206 km

Apoapsis: 1021.829 km

Periapsis: 1018.312 km

RAAN: 53.2011 deg

Eccentricy: 0.0002377

Argument of periapsis: 116.4617 deg

Mean anomaly: 261.5103 deg

Mean motion: 13.64310263 rev/day

Mean motion (dot): 0.00000242 rev/day2

B* drag term: 0.00036298 1/REarth

Two-line elements (TLE)

Creation date: July 8, 2025, 2:27 a.m.

Reference frame: TEME

Reference center: EARTH

Epoch: July 7, 2025, 9:15 p.m. UTC

TLE line 0: 0 THORAD AGENA D DEB

TLE line 1: 1 14467U 70025NT 25188.88565641 .00000242 00000-0 36298-3 0 9992

TLE line 2: 2 14467 100.0815 53.2011 0002377 116.4617 261.5103 13.64310263114841

Live tracking on map

Real-time ground track for satellite THORAD AGENA D DEB.

In-orbit conjunctions

A list of the most updated potential collisions computed for object THORAD AGENA D DEB.

Target Orbit TCA Probability of collision Miss distance Type
THOR ABLESTAR DEB LEO 2025-06-26 19:51:27 0.0001013306 172.0 (m) DEBRIS
CZ-6A DEB SSO 2024-10-02 08:05:38 0.0001281914 84.0 (m) DEBRIS

Associated space launch

Meteorological research and development satellite

THORAD AGENA D DEB was lifted into orbit during the mission ‘Thorad SLV-2G Agena D | Nimbus 4’, on board a Thorad SLV-2G Agena D space rocket.

The launch took place on April 8, 1970, 8:17 a.m. from Space Launch Complex 2E.

For more information about the launch, click the button.

Launch to space Thorad SLV-2G Agena D | Nimbus 4
Thorad SLV-2G Agena D | Nimbus 4

Agency: N/A

Status: Launch Successful

Launch date: April 8, 1970, 8:17 a.m. UTC

Rocket: Thorad SLV-2G Agena D

Launch pad: Space Launch Complex 2E

Location: Vandenberg SFB, CA, USA

...

Latest news about this satellite

There are no fresh news available about this satellite. Check back as we update our databases every day.


Newsletter sign-up

Weekly statistics, charts and insights to help you stay on top of the space industry.